• In France
  • List of Countries
  • For 7 days
  • Water Temperature
  • Satellite Maps
  • Weather Map
  • Weather Widgets
  • user-avatar
    Login

    Hourly Weather Mitu

    Today, 20 February, Tuesday

    Time Temperature Precipitation Wind Pressure Humidity
    00:00 +23°C° 0 mm 0 mps 737 mmHg 77%
    01:00 +22°C° 0 mm 0 mps 737 mmHg 79%
    02:00 +22°C° 0 mm 0 mps 737 mmHg 81%
    03:00 +22°C° 0 mm 0 mps 737 mmHg 83%
    04:00 +23°C° 0 mm 1 mps 737 mmHg 84%
    05:00 +24°C° 0 mm 1 mps 737 mmHg 81%
    06:00 +24°C° 0 mm 1 mps 738 mmHg 78%
    07:00 +24°C° 0 mm 1 mps 738 mmHg 75%
    08:00 +27°C° 0 mm 2 mps 739 mmHg 66%
    09:00 +29°C° 0 mm 2 mps 739 mmHg 56%
    10:00 +31°C° 0 mm 3 mps 740 mmHg 46%
    11:00 +33°C° 0 mm 3 mps 739 mmHg 44%
    12:00 +34°C° 0 mm 2 mps 738 mmHg 42%
    13:00 +36°C° 0 mm 2 mps 737 mmHg 40%
    14:00 +35°C° 0 mm 2 mps 737 mmHg 41%
    15:00 +35°C° 0 mm 2 mps 736 mmHg 42%
    16:00 +35°C° 0 mm 2 mps 735 mmHg 43%
    17:00 +32°C° 0 mm 1 mps 736 mmHg 52%
    18:00 +30°C° 0 mm 1 mps 736 mmHg 61%
    19:00 +25°C° 0 mm 0 mps 736 mmHg 69%
    20:00 +25°C° 0 mm 0 mps 737 mmHg 71%
    21:00 +24°C° 0 mm 0 mps 737 mmHg 73%
    22:00 +24°C° 0 mm 0 mps 738 mmHg 75%
    23:00 +24°C° 0 mm 0 mps 738 mmHg 76%

    Tomorrow, 21 February, Wednesday

    Time Temperature Precipitation Wind Pressure Humidity
    00:00 +23°C° 0 mm 0 mps 738 mmHg 78%
    01:00 +23°C° 0 mm 0 mps 737 mmHg 79%
    02:00 +22°C° 0 mm 0 mps 737 mmHg 80%
    03:00 +22°C° 0 mm 0 mps 737 mmHg 81%
    04:00 +21°C° 0 mm 0 mps 737 mmHg 82%
    05:00 +24°C° 0 mm 1 mps 738 mmHg 79%
    06:00 +24°C° 0 mm 1 mps 738 mmHg 77%
    07:00 +24°C° 0 mm 1 mps 739 mmHg 74%
    08:00 +27°C° 0 mm 2 mps 739 mmHg 65%
    09:00 +29°C° 0 mm 2 mps 740 mmHg 56%
    10:00 +33°C° 0 mm 3 mps 740 mmHg 47%
    11:00 +34°C° 0 mm 3 mps 739 mmHg 43%
    12:00 +35°C° 0 mm 3 mps 738 mmHg 40%
    13:00 +36°C° 0 mm 2 mps 737 mmHg 37%
    14:00 +36°C° 0 mm 2 mps 737 mmHg 38%
    15:00 +36°C° 0 mm 2 mps 736 mmHg 39%
    16:00 +36°C° 0 mm 2 mps 735 mmHg 39%
    17:00 +33°C° 0 mm 1 mps 736 mmHg 48%
    18:00 +30°C° 0 mm 1 mps 736 mmHg 56%
    19:00 +26°C° 0 mm 0 mps 737 mmHg 64%
    20:00 +25°C° 0 mm 0 mps 737 mmHg 66%
    21:00 +25°C° 0 mm 0 mps 738 mmHg 68%
    22:00 +24°C° 0 mm 0 mps 738 mmHg 70%
    23:00 +24°C° 0 mm 0 mps 738 mmHg 72%

    Day after tomorrow, 22 February, Thursday

    Time Temperature Precipitation Wind Pressure Humidity
    00:00 +25°C° 0 mm 1 mps 738 mmHg 73%
    01:00 +25°C° 0 mm 1 mps 737 mmHg 75%
    02:00 +25°C° 0 mm 1 mps 737 mmHg 75%
    03:00 +24°C° 0 mm 1 mps 737 mmHg 76%
    04:00 +24°C° 0 mm 1 mps 737 mmHg 77%
    05:00 +24°C° 0 mm 1 mps 737 mmHg 75%
    06:00 +24°C° 0 mm 1 mps 738 mmHg 74%
    07:00 +24°C° 0 mm 1 mps 738 mmHg 72%
    08:00 +27°C° 0 mm 1 mps 739 mmHg 62%
    09:00 +29°C° 0 mm 2 mps 739 mmHg 51%
    10:00 +33°C° 0 mm 3 mps 740 mmHg 40%
    11:00 +34°C° 0 mm 2 mps 739 mmHg 38%
    12:00 +35°C° 0 mm 2 mps 738 mmHg 36%
    13:00 +36°C° 0 mm 2 mps 737 mmHg 34%
    14:00 +36°C° 0 mm 2 mps 736 mmHg 35%
    15:00 +36°C° 0 mm 2 mps 735 mmHg 36%
    16:00 +36°C° 0 mm 2 mps 735 mmHg 37%
    17:00 +33°C° 0 mm 1 mps 735 mmHg 45%
    18:00 +30°C° 0 mm 1 mps 736 mmHg 53%
    19:00 +26°C° 0 mm 0 mps 736 mmHg 61%
    20:00 +25°C° 0 mm 0 mps 737 mmHg 63%
    21:00 +25°C° 0 mm 0 mps 737 mmHg 65%
    22:00 +24°C° 0 mm 0 mps 738 mmHg 67%
    23:00 +24°C° 0 mm 0 mps 738 mmHg 70%

    23 February, Friday

    Time Temperature Precipitation Wind Pressure Humidity
    00:00 +23°C° 0 mm 0 mps 737 mmHg 73%
    01:00 +23°C° 0 mm 0 mps 737 mmHg 76%
    02:00 +23°C° 0 mm 0 mps 737 mmHg 78%
    03:00 +22°C° 0 mm 0 mps 737 mmHg 81%
    04:00 +22°C° 0 mm 0 mps 737 mmHg 84%
    05:00 +22°C° 0 mm 0 mps 737 mmHg 83%
    06:00 +23°C° 0 mm 0 mps 738 mmHg 82%
    07:00 +23°C° 0 mm 0 mps 738 mmHg 82%
    08:00 +27°C° 0 mm 1 mps 739 mmHg 70%
    09:00 +29°C° 0 mm 1 mps 739 mmHg 59%
    10:00 +32°C° 0 mm 2 mps 739 mmHg 47%
    11:00 +34°C° 0 mm 2 mps 738 mmHg 43%
    12:00 +35°C° 0 mm 2 mps 737 mmHg 40%
    13:00 +36°C° 0 mm 2 mps 736 mmHg 36%
    14:00 +35°C° 0 mm 1 mps 736 mmHg 36%
    15:00 +35°C° 0 mm 1 mps 735 mmHg 37%
    16:00 +35°C° 0 mm 1 mps 734 mmHg 37%
    17:00 +33°C° 0 mm 1 mps 735 mmHg 44%
    18:00 +28°C° 0 mm 0 mps 735 mmHg 52%
    19:00 +26°C° 0 mm 0 mps 736 mmHg 59%
    20:00 +26°C° 0 mm 0 mps 736 mmHg 61%
    21:00 +25°C° 0 mm 0 mps 737 mmHg 63%
    22:00 +25°C° 0 mm 0 mps 737 mmHg 65%
    23:00 +24°C° 0 mm 0 mps 737 mmHg 67%

    24 February, Saturday

    Time Temperature Precipitation Wind Pressure Humidity
    00:00 +24°C° 0 mm 0 mps 736 mmHg 70%
    01:00 +23°C° 0 mm 0 mps 736 mmHg 72%
    02:00 +23°C° 0 mm 0 mps 736 mmHg 76%
    03:00 +22°C° 0 mm 0 mps 736 mmHg 80%
    04:00 +22°C° 0 mm 0 mps 736 mmHg 83%
    05:00 +22°C° 0.2 mm 0 mps 736 mmHg 84%
    06:00 +23°C° 0.2 mm 0 mps 737 mmHg 86%
    07:00 +23°C° 0.2 mm 0 mps 738 mmHg 87%
    08:00 +25°C° 0.1 mm 0 mps 738 mmHg 75%
    09:00 +30°C° 0.1 mm 1 mps 738 mmHg 64%
    10:00 +32°C° 0.1 mm 1 mps 738 mmHg 52%
    11:00 +34°C° 0 mm 1 mps 738 mmHg 47%
    12:00 +36°C° 0 mm 2 mps 737 mmHg 42%
    13:00 +37°C° 0 mm 2 mps 736 mmHg 37%
    14:00 +36°C° 0 mm 1 mps 735 mmHg 38%
    15:00 +35°C° 0 mm 1 mps 735 mmHg 39%
    16:00 +35°C° 0 mm 1 mps 734 mmHg 40%
    17:00 +33°C° 0 mm 1 mps 735 mmHg 46%
    18:00 +29°C° 0 mm 0 mps 735 mmHg 53%
    19:00 +26°C° 0 mm 0 mps 735 mmHg 59%
    20:00 +26°C° 0 mm 0 mps 736 mmHg 61%
    21:00 +25°C° 0 mm 0 mps 736 mmHg 63%
    22:00 +25°C° 0 mm 0 mps 737 mmHg 65%
    23:00 +24°C° 0 mm 0 mps 737 mmHg 70%

    25 February, Sunday

    Time Temperature Precipitation Wind Pressure Humidity
    00:00 +24°C° 0 mm 0 mps 736 mmHg 74%
    01:00 +23°C° 0 mm 0 mps 736 mmHg 79%
    02:00 +23°C° 0.2 mm 0 mps 736 mmHg 83%
    03:00 +23°C° 0.2 mm 0 mps 736 mmHg 87%
    04:00 +22°C° 0.2 mm 0 mps 736 mmHg 91%
    05:00 +23°C° 0.1 mm 0 mps 737 mmHg 91%
    06:00 +23°C° 0.1 mm 0 mps 737 mmHg 90%
    07:00 +24°C° 0.1 mm 0 mps 738 mmHg 90%
    08:00 +26°C° 0 mm 0 mps 738 mmHg 77%
    09:00 +31°C° 0 mm 1 mps 738 mmHg 64%
    10:00 +34°C° 0 mm 1 mps 739 mmHg 51%
    11:00 +35°C° 0.1 mm 1 mps 738 mmHg 47%
    12:00 +36°C° 0.1 mm 1 mps 737 mmHg 42%
    13:00 +38°C° 0.1 mm 2 mps 736 mmHg 38%
    14:00 +36°C° 0 mm 1 mps 736 mmHg 40%
    15:00 +36°C° 0 mm 1 mps 735 mmHg 42%
    16:00 +35°C° 0 mm 1 mps 734 mmHg 45%
    17:00 +33°C° 0 mm 1 mps 735 mmHg 52%
    18:00 +31°C° 0 mm 1 mps 735 mmHg 59%
    19:00 +29°C° 0 mm 1 mps 735 mmHg 66%
    20:00 +28°C° 0 mm 1 mps 736 mmHg 69%
    21:00 +28°C° 0 mm 1 mps 736 mmHg 71%
    22:00 +27°C° 0 mm 1 mps 737 mmHg 74%
    23:00 +27°C° 0 mm 1 mps 736 mmHg 76%
    Show more